Regional Weather Roundup
Issued by NWS

Home | Current Version | Previous Version | Text Only | Print | Product List | Glossary On
Versions: 1 2 3 4 5 6 7 8 9 10 11 12 13 14 15 16 17 18 19 20 21 22 23 24 25 26 27
000
ASUS44 KBMX 201810
RWRAL

ALABAMA REGIONAL WEATHER ROUNDUP
NATIONAL WEATHER SERVICE BIRMINGHAM AL
100 PM CDT FRI OCT 20 2017

NOTE: "FAIR" INDICATES FEW OR NO CLOUDS BELOW 12,000 FEET
WITH NO SIGNIFICANT WEATHER AND/OR OBSTRUCTIONS TO VISIBILITY.

THE REMARK "TC" DENOTES TEMPERATURE IN DEGREES CELSIUS.

ALZ001>011-014-016>018-020-201900-
NORTH ALABAMA

CITY           SKY/WX    TMP DP  RH WIND       PRES   REMARKS
MUSCLE SHOALS  SUNNY     75  49  39 VRB7      30.25F
6HR MIN TEMP:  44; 6HR MAX TEMP:  76;

HUNTSVILLE     MOSUNNY   74  47  38 CALM      30.25F
6HR MIN TEMP:  46; 6HR MAX TEMP:  74;

DECATUR        SUNNY     75  49  39 VRB3      30.25F
6HR MIN TEMP:  41; 6HR MAX TEMP:  75;

HALEYVILLE     FAIR      74  52  46 VRB5      30.26F
6HR MIN TEMP:  42; 6HR MAX TEMP:  75;

GADSDEN        SUNNY     73  52  47 NE5       30.25F
6HR MIN TEMP:  38; 6HR MAX TEMP:  73;

$$

ALZ012-013-022-023-030>036-040>044-201900-
WEST CENTRAL ALABAMA

CITY           SKY/WX    TMP DP  RH WIND       PRES   REMARKS
TUSCALOOSA     SUNNY     78  58  49 VRB6      30.21F
6HR MIN TEMP:  47; 6HR MAX TEMP:  78;

DEMOPOLIS        N/A     78  56  46 NE3       30.19F
6HR MIN TEMP:  50; 6HR MAX TEMP:  78;

$$

ALZ015-024>026-033>036-041>044-201900-
CENTRAL ALABAMA

CITY           SKY/WX    TMP DP  RH WIND       PRES   REMARKS
BIRMINGHAM     PTSUNNY   75  49  39 VRB3      30.25F
6HR MIN TEMP:  49; 6HR MAX TEMP:  76;

MONTGOMERY     SUNNY     80  53  39 NE7       30.21F
6HR MIN TEMP:  52; 6HR MAX TEMP:  81;

SHELBY CO ARPT SUNNY     75  55  49 CALM      30.23F
6HR MIN TEMP:  52; 6HR MAX TEMP:  76;

MAXWELL AFB    SUNNY     76  55  47 NE3       30.20F
6HR MIN TEMP:  53; 6HR MAX TEMP:  77;

GREENVILLE     FAIR      82  54  37 NE7       30.18F
6HR MIN TEMP:  54; 6HR MAX TEMP:  82;

SELMA          FAIR      77  54  44 E8        30.20F
PRATTVILLE     FAIR      75  56  51 CALM      30.21F
6HR MIN TEMP:  48; 6HR MAX TEMP:  76;

BESSEMER       FAIR      74  53  48 CALM      30.24F
6HR MIN TEMP:  51; 6HR MAX TEMP:  75;

TALLADEGA      FAIR      74  47  39 CALM      30.25F
6HR MIN TEMP:  41; 6HR MAX TEMP:  74;

PELL CITY      CLEAR     73  43  33 CALM      30.24F
MARION         FAIR      78  58  50 E6        30.20F
6HR MIN TEMP:  52; 6HR MAX TEMP:  78;

SYLACAUGA      FAIR      75  52  43 CALM      30.24F
6HR MIN TEMP:  45; 6HR MAX TEMP:  75;

$$

ALZ019-021-028-029-037-038-045>048-201900-
EAST CENTRAL ALABAMA

CITY           SKY/WX    TMP DP  RH WIND       PRES   REMARKS
ANNISTON       SUNNY     74  50  42 CALM      30.24F
6HR MIN TEMP:  45; 6HR MAX TEMP:  75;

ALEXANDER CITY SUNNY     75  53  45 CALM      30.23F
6HR MIN TEMP:  47; 6HR MAX TEMP:  75;

AUBURN         SUNNY     76  52  43 VRB6      30.23F
6HR MIN TEMP:  51; 6HR MAX TEMP:  76;

$$

ALZ051>064-201900-
SOUTHWEST ALABAMA

CITY           SKY/WX    TMP DP  RH WIND       PRES   REMARKS
MOBILE         PTSUNNY   81  61  50 SE10      30.16F
6HR MIN TEMP:  61; 6HR MAX TEMP:  81;

BROOKLEY FIELD CLOUDY    79  64  60 E9        30.16F
6HR MIN TEMP:  68; 6HR MAX TEMP:  80;

EVERGREEN      SUNNY     80  60  50 E8        30.18F
6HR MIN TEMP:  52; 6HR MAX TEMP:  81;

$$

ALZ049-050-065>069-201900-
SOUTHEAST ALABAMA

CITY           SKY/WX    TMP DP  RH WIND       PRES   REMARKS
DOTHAN         SUNNY     82  55  39 NE7       30.22F
6HR MIN TEMP:  56; 6HR MAX TEMP:  82;

OZARK          SUNNY     80  55  41 NE7       30.18F
6HR MIN TEMP:  55; 6HR MAX TEMP:  80;

TROY           SUNNY     80  55  42 NE8       30.21F
6HR MIN TEMP:  49; 6HR MAX TEMP:  80;

EUFAULA        FAIR      82  56  40 VRB5      30.19F
6HR MIN TEMP:  49; 6HR MAX TEMP:  82;

$$




USA.gov is the U.S. government's official web portal to all federal, state and local government web resources and services.